Location: Bergnerzell
(49.1816°N, 10.2565°E)
Time: 22:49:08
(UTC+00:00)

Meteor 1-24 Rocket - Pass Details

Date: 09 August 2024
Orbit: 790 x 925 km, 81.3° (Epoch: 09 September)

Event Time Altitude Azimuth Distance (km) Brightness Sun altitude
Rises 03:14:12 0° 343° (NNW) 3,488 7.1 -7.7°
Reaches altitude 10° 03:16:44 10° 336° (NNW) 2,565 6.4 -7.3°
Maximum altitude 03:22:12 43° 268° (W) 1,261 4.3 -6.6°
Drops below altitude 10° 03:27:47 10° 199° (SSW) 2,609 5.8 -5.8°
Sets 03:30:23 0° 192° (SSW) 3,555 6.5 -5.5°
